Regional Weather Roundup
Issued by NWS Upton, NY

Current Version | Previous Version | Text Only | Print | Product List | Glossary On
Versions: 1 2 3 4 5 6 7 8 9 10 11 12 13 14 15 16 17 18 19 20 21 22 23 24 25 26 27
000
ASUS41 KOKX 250405
RWROKX

REGIONAL WEATHER ROUNDUP
NATIONAL WEATHER SERVICE NEW YORK NY
1200 AM EDT WED MAY 25 2016

NOTE: "FAIR" INDICATES FEW OR NO CLOUDS BELOW 12,000 FEET WITH NO
SIGNIFICANT WEATHER AND/OR OBSTRUCTIONS TO VISIBILITY.

NYZ071-072-176-178-NJZ106-104-250500-
NEW YORK CITY METRO AREA


CITY           SKY/WX    TMP DP  RH WIND       PRES   REMARKS
CENTRAL PARK   CLOUDY    64  51  62 CALM      30.01S
LAGUARDIA APRT MOCLDY    65  58  78 CALM      29.98S
KENNEDY INTL   CLOUDY    62  57  83 SW5       30.00R
NEWARK/LIBERTY CLOUDY    66  52  60 W5        29.99R
BRNX BOT. GARD   N/A     61  52  72 E2        30.00R
TETERBORO      PTCLDY    63  51  65 CALM      29.98R
$$

NYZ177-179-078>081-250500-
LONG ISLAND NEW YORK

CITY           SKY/WX    TMP DP  RH WIND       PRES   REMARKS
FARMINGDALE    MOCLDY    61  56  83 CALM      29.99R
ISLIP          MOCLDY    59  58  96 CALM      29.98R
SHIRLEY        FOG       59  57  93 CALM      29.99S VSB 3/4
RIVERHEAD        N/A     54  54 100 CALM      29.98S
WESTHAMPTON    FOG       48  48 100 CALM      30.00S VSB 1/4
EAST HAMPTON   FAIR      52  51  98 CALM      29.98S
MONTAUK POINT    N/A     56  55  97 CALM      29.99S
$$

NYZ052-065-067-250500-
HUDSON VALLEY

CITY           SKY/WX    TMP DP  RH WIND       PRES   REMARKS
WHITE PLAINS   PTCLDY    59  57  93 NW5       29.99R
NEWBURGH       NOT AVBL
MONTGOMERY     CLEAR     52  50  93 CALM      29.99S
POUGHKEEPSIE   CLOUDY    59  56  89 CALM      29.98S
ALBANY         PTCLDY    57  54  89 CALM      29.97S
$$

NJZ001-105-106-008-010-013-015-019>022-104-250500-
NEW JERSEY

CITY           SKY/WX    TMP DP  RH WIND       PRES   REMARKS
NEWARK/LIBERTY CLOUDY    66  52  60 W5        29.99R
TETERBORO      PTCLDY    63  51  65 CALM      29.98R
CALDWELL       CLEAR     59  54  83 CALM      30.00S
MORRISTOWN     CLEAR     52  50  93 CALM      30.01R
SOMERVILLE     CLEAR     55  53  93 CALM      30.00R
SUSSEX         CLEAR     52  50  93 CALM      30.02R
ANDOVER          N/A     54  52  93 CALM      30.03R
TRENTON        CLEAR     62  52  69 N5        30.00R
MILLVILLE      CLEAR     64  54  69 W6        30.01R
ATLANTIC CITY  CLEAR     60  53  77 NW7       30.00R
WRIGHTSTOWN    NOT AVBL
TOMS RIVER     CLEAR     55  50  82 CALM      30.01S
BELMAR         MOCLDY    58  55  90 CALM      30.02R
$$

PAZ047>061-062-071-250500-
EASTERN PENNSYLVANIA

CITY           SKY/WX    TMP DP  RH WIND       PRES   REMARKS
PHILADELPHIA   CLEAR     65  54  67 E5        30.02R
ALLENTOWN      CLEAR     58  52  80 CALM      30.03R
SCRANTON       CLEAR     59  43  55 SE5       30.02R
$$

CTZ002-004>006-009-010-012-RIZ004-006-007-MAZ004-011-015-250500-
SOUTHERN NEW ENGLAND
 IN CT

CITY           SKY/WX    TMP DP  RH WIND       PRES   REMARKS
BRADLEY INTL   CLOUDY    55  53  93 CALM      29.97R
HARTFORD       CLEAR     59  56  89 CALM      29.98R
DANBURY        MOCLDY    58  57  97 SW3       30.00F
WTRBRY/OXFORD    N/A     55  52  88 CALM      30.01S VSB 1/4
BRIDGEPORT     CLOUDY    61  59  93 CALM      29.98S
MERIDEN        CLEAR     55  53  93 CALM      29.98S
NEW HAVEN      FOG       55  54  96 CALM      29.98S VSB 1/2
CHESTER        FAIR      55  54  94 CALM      29.98R
GROTON         CLOUDY    56  56 100 CALM      29.97F
WILLIMANTIC    MOCLDY    54  50  86 NE3       29.98S

 IN RI

CITY           SKY/WX    TMP DP  RH WIND       PRES   REMARKS
PROVIDENCE     CLOUDY    56  53  90 N3        29.98S
BLOCK ISLAND   FOG       55  55 100 CALM      29.99S VSB 1
WESTERLY       CLOUDY    59  54  83 NE3       29.98F

 IN MA

CITY           SKY/WX    TMP DP  RH WIND       PRES   REMARKS
BOSTON         CLOUDY    53  51  93 N6        29.98S
WORCESTER      CLOUDY    56  54  93 NW5       29.98F
WESTFIELD      MOCLDY    54  52  93 CALM      29.98R FOG
PROVINCETOWN   LGT RAIN  51  51 100 N6        29.97S FOG
NANTUCKET      LGT RAIN  56  54  93 W9        29.95S FOG
$$

ANZ330-335-338-340-345-350-353-355-250500-
COASTAL MARINE OBSERVATIONS


STATION/POSITION TIME  SKY/WX   TEMP    WIND        PRES    VSBY  WAVE
                                AIR SEA DIR/SP/G                  HT/PER
                 (UTC)          (F)     (DEG/KT/KT) (MB)    (MI)  (FT/S)
NY HARB ENTRANCE 0250            60 59     CALM     1015.1          3/ 9
20S FIRE ISLAND  0250            58 54   CALM  /  2 1015.2          3/ 9
GREAT SOUTH BAY  0300            62 64   CALM  /  2   N/A
23 SSW MONTAUK P 0350            55 54  220/  2/  4 1014.8          4/ 8
15 E BARNEGAT LI 0322               56                N/A           3/ 9
HUDSON CANYON    0250            58 53              1015.3          3/ 8
KINGS POINT      0300            60 57              1015.0
EXECUTION ROCKS  NOT AVBL
CENTRAL LI SOUND 0315            58     220/  2/  4   N/A           0
EASTERN LI SOUND 0300            56 52   CALM  /  2   N/A
ROBBINS REEF     0318            67                 1014.8
$$


>>>>>>>>>>>>>>>>>>>>>>>>>>>> KEY <<<<<<<<<<<<<<<<<<<<<<<<<<<
>                                                          <
>     SKY/WX - SKY CONDITION/PRESENT WEATHER               <
>     TMP    - TEMPERATURE IN FAHRENHEIT                   <
>     DP     - DEWPOINT IN FAHRENHEIT                      <
>     RH     - RELATIVE HUMIDITY IN PERCENT                <
>     WIND   - DIRECTION AND SPEED IN MPH                  <
>     PRES   - MEAN SEA LEVEL PRESSURE IN INCHES OF HG     <
>     WCI    - WIND CHILL INDEX                            <
>     VSB    - VISIBILITY IN MILES                         <
>     HX     - HEAT INDEX                                  <
>     TC     - TEMPERATURE IN CELSIUS                      <
>     VRB    - VARIABLE WIND DIRECTION                     <
>                                                          <
>>>>>>>>>>>>>>>>>>>>>>>>>>>> KEY <<<<<<<<<<<<<<<<<<<<<<<<<<<






USA.gov is the U.S. government's official web portal to all federal, state and local government web resources and services.